Probability
29 32 65 68 68 58 52 52 55 65 61 61 58 68 71 74 58 65 71 68 74 77 74 71 71 65 65 65 58 61 68 61 61 55 55 48 45 52 48 48 42 29 42
32 35 68 71 65 65 61 58 58 61 55 61 61 65 68 74 61 61 65 71 71 74 74 71 68 61 71 65 68 65 58 52 52 55 61 39 42 52 42 45 45 23 48
32 42 52 71 68 61 65 58 58 61 58 65 58 61 61 61 61 65 68 65 71 71 77 65 65 68 68 61 58 55 52 61 48 52 55 32 29 48 42 45 45 42 48
32 45 52 65 71 65 58 52 58 55 52 61 58 58 61 65 65 65 65 65 65 61 58 68 65 61 61 45 55 55 48 55 52 65 35 19 16 48 48 55 42 39 39
35 52 58 68 61 68 61 55 58 61 65 55 58 55 61 68 65 61 65 68 68 65 68 65 61 58 52 48 52 55 55 52 52 48 29 29 29 58 58 48 45 39 35
29 45 52 65 65 65 61 65 68 68 61 52 55 55 61 65 61 61 58 61 61 61 65 65 65 52 52 52 42 42 45 45 52 23 29 26 32 55 61 48 45 45 29
29 39 42 68 58 61 61 68 68 65 65 58 55 61 61 58 45 45 61 58 65 61 61 61 61 48 52 48 48 42 45 52 39 23 26 29 32 52 52 42 42 45 42
23 32 39 65 58 58 71 65 68 71 71 61 58 48 52 61 52 48 45 42 55 48 48 58 55 42 48 45 45 48 52 52 35 16 13 23 42 45 45 39 42 39 42
23 32 32 35 55 65 65 65 65 61 61 55 52 45 48 58 61 52 48 42 48 42 39 45 48 42 45 48 48 48 48 55 32 13 6 23 42 45 42 39 35 35 42
13 29 35 32 35 35 39 65 68 61 65 61 55 55 55 55 52 58 52 48 45 45 42 35 35 39 42 42 45 52 55 32 16 6 6 23 42 45 39 39 32 39 39
16 19 26 29 42 39 29 35 61 61 55 61 52 45 48 45 42 45 42 48 45 42 45 45 39 39 35 39 39 48 39 10 6 6 13 26 52 45 39 35 35 35 39
16 26 23 26 35 32 35 55 58 39 48 55 52 48 45 58 48 32 32 39 42 45 42 52 48 42 32 23 26 32 16 13 10 3 13 42 48 39 35 35 42 42 42
19 23 23 29 35 35 39 52 48 48 48 45 52 55 55 39 45 35 29 32 39 42 42 39 39 29 26 23 29 23 13 10 10 6 10 35 39 32 35 35 42 45 45
29 26 32 35 39 45 52 52 52 39 39 35 52 42 35 45 39 42 39 42 32 35 35 35 35 29 29 29 26 19 19 13 13 10 13 35 42 39 32 32 35 35 45
32 29 35 45 45 58 71 55 39 45 32 39 45 48 48 45 39 39 39 42 39 39 35 35 26 32 29 26 23 26 29 23 16 13 19 35 42 42 39 35 26 26 32
26 29 32 39 55 61 71 71 58 42 55 39 45 45 48 48 48 42 39 42 42 35 35 39 39 32 26 32 26 32 26 26 23 26 16 26 39 45 39 35 35 39 32
23 32 35 39 52 55 58 65 52 45 42 42 48 42 45 45 45 42 39 32 32 32 35 42 39 35 32 19 23 29 32 32 26 26 26 23 16 42 45 42 35 39 39
29 42 45 26 42 58 61 71 48 45 45 48 42 39 39 42 42 45 39 29 32 32 29 35 45 39 35 35 39 35 29 39 29 26 19 23 23 16 29 39 39 32 35
45 45 45 48 52 52 52 65 58 65 58 42 39 42 39 32 39 39 42 39 39 35 35 29 42 35 29 26 32 35 39 42 42 29 32 23 16 23 23 39 39 39 39
48 61 55 61 61 61 52 65 65 58 52 45 42 42 35 29 35 35 35 45 35 35 39 42 35 39 35 39 23 23 35 42 39 32 29 29 29 23 19 29 32 35 32
48 65 68 71 74 65 65 55 55 58 58 42 39 42 35 35 26 35 29 32 29 35 32 35 32 39 35 42 35 32 32 32 32 32 32 32 32 26 26 29 26 26 23
45 55 65 68 68 65 65 68 71 65 55 58 48 45 39 29 29 26 39 35 35 35 35 42 42 35 35 32 35 32 35 32 42 13 39 35 23 26 23 13 23 26 26
48 55 55 68 74 71 61 58 52 55 58 45 45 48 29 32 39 39 32 35 39 39 39 39 39 39 35 39 32 29 35 29 32 26 29 29 32 23 23 29 26 26 23
48 52 61 68 71 68 61 55 58 52 48 52 48 48 42 39 39 39 42 42 42 42 45 39 39 39 45 42 45 39 35 45 32 26 29 29 32 32 26 23 26 26 19
32 55 58 68 71 68 61 58 58 58 52 45 52 52 52 52 39 35 42 45 48 42 42 42 42 42 45 45 45 45 32 42 29 23 19 19 29 29 26 32 23 23 19
39 52 58 68 71 68 68 61 61 61 58 55 52 48 45 45 45 42 39 45 45 45 45 45 45 42 48 39 35 42 39 32 26 26 19 23 19 23 26 29 23 23 23
Height
5861 5860 5860 5861 5862 5863 5863 5864 5865 5865 5866 5866 5867 5867 5868 5868 5868 5869 5870 5871 5871 5872 5873 5874 5874 5875 5876 5876 5877 5878 5879 5880 5881 5882 5883 5884 5884 5885 5886 5886 5887 5887 5887
5860 5858 5859 5860 5862 5863 5863 5864 5864 5864 5865 5866 5866 5867 5867 5867 5868 5869 5870 5870 5871 5872 5873 5874 5874 5875 5875 5876 5877 5878 5879 5880 5881 5882 5883 5883 5884 5885 5885 5886 5886 5886 5887
5861 5859 5858 5860 5862 5862 5863 5863 5863 5864 5865 5865 5865 5866 5867 5867 5868 5868 5869 5870 5871 5872 5873 5873 5874 5874 5875 5876 5877 5878 5879 5880 5881 5882 5883 5883 5884 5884 5885 5886 5886 5886 5887
5863 5861 5861 5861 5862 5863 5863 5863 5863 5864 5864 5865 5865 5866 5866 5867 5868 5868 5869 5870 5871 5871 5872 5873 5873 5874 5875 5875 5876 5877 5878 5879 5880 5881 5882 5883 5884 5884 5885 5885 5885 5886 5886
5865 5864 5863 5863 5863 5863 5863 5863 5863 5864 5864 5864 5865 5866 5866 5867 5867 5868 5869 5869 5870 5871 5871 5872 5872 5873 5874 5875 5875 5876 5877 5878 5879 5880 5882 5882 5883 5883 5884 5884 5885 5885 5886
5867 5866 5865 5864 5864 5863 5863 5862 5862 5863 5864 5864 5865 5866 5866 5867 5867 5868 5868 5869 5869 5870 5871 5871 5871 5872 5873 5873 5874 5875 5876 5877 5878 5879 5881 5881 5882 5883 5883 5883 5884 5884 5885
5868 5867 5866 5865 5864 5863 5861 5860 5861 5862 5863 5865 5865 5865 5866 5866 5867 5867 5868 5868 5869 5869 5869 5870 5870 5870 5871 5872 5873 5873 5875 5876 5877 5878 5880 5880 5881 5882 5882 5883 5883 5884 5884
5870 5869 5868 5866 5865 5863 5861 5860 5860 5862 5863 5865 5865 5865 5866 5866 5866 5867 5867 5867 5867 5868 5868 5868 5868 5869 5870 5871 5871 5872 5873 5875 5876 5877 5878 5879 5880 5881 5881 5882 5882 5883 5883
5872 5870 5869 5868 5866 5865 5863 5862 5862 5863 5864 5865 5866 5866 5866 5866 5866 5866 5866 5866 5867 5867 5867 5867 5867 5867 5868 5869 5870 5870 5872 5873 5874 5875 5877 5877 5878 5879 5880 5881 5882 5882 5883
5873 5872 5871 5869 5868 5867 5865 5864 5864 5865 5866 5866 5866 5866 5865 5864 5864 5864 5865 5866 5866 5866 5866 5866 5865 5866 5866 5867 5868 5869 5870 5872 5873 5873 5875 5876 5877 5878 5879 5880 5881 5882 5882
5875 5874 5872 5871 5870 5869 5868 5867 5867 5867 5867 5867 5868 5867 5865 5863 5862 5863 5864 5865 5865 5865 5865 5864 5864 5864 5864 5865 5866 5867 5868 5870 5872 5872 5874 5876 5877 5877 5878 5879 5880 5880 5881
5877 5875 5874 5873 5873 5872 5870 5869 5869 5869 5869 5869 5869 5868 5866 5864 5863 5863 5864 5864 5864 5864 5864 5863 5862 5862 5863 5864 5865 5866 5867 5868 5870 5872 5873 5875 5876 5876 5877 5878 5879 5879 5880
5878 5877 5876 5875 5875 5874 5872 5872 5871 5871 5871 5870 5870 5869 5868 5866 5865 5865 5865 5865 5865 5864 5863 5862 5861 5861 5861 5862 5863 5864 5866 5867 5869 5871 5872 5873 5875 5875 5876 5877 5877 5878 5878
5880 5879 5878 5877 5876 5876 5875 5874 5874 5873 5872 5872 5871 5870 5869 5868 5867 5866 5866 5865 5864 5864 5862 5861 5860 5860 5860 5861 5862 5863 5865 5866 5868 5870 5871 5872 5873 5874 5875 5875 5876 5876 5877
5882 5881 5880 5879 5878 5878 5877 5876 5875 5875 5874 5873 5872 5871 5870 5869 5868 5867 5867 5865 5865 5863 5862 5860 5859 5859 5859 5860 5861 5863 5864 5865 5867 5869 5870 5871 5872 5873 5873 5874 5874 5875 5875
5884 5883 5882 5881 5880 5879 5878 5878 5877 5876 5875 5874 5873 5872 5871 5870 5869 5868 5867 5866 5864 5863 5861 5860 5858 5858 5859 5860 5862 5863 5864 5865 5866 5867 5868 5870 5871 5871 5872 5872 5872 5873 5873
5886 5885 5884 5883 5882 5880 5880 5879 5878 5877 5876 5875 5874 5873 5872 5871 5870 5870 5868 5867 5864 5863 5861 5860 5858 5859 5859 5860 5861 5862 5863 5864 5865 5865 5867 5868 5869 5870 5870 5870 5871 5871 5872
5888 5886 5885 5884 5883 5882 5881 5881 5879 5878 5877 5876 5875 5874 5873 5872 5871 5870 5869 5867 5865 5863 5862 5860 5859 5858 5859 5860 5861 5862 5863 5863 5864 5865 5866 5867 5868 5868 5868 5869 5869 5869 5870
5889 5887 5887 5885 5885 5884 5882 5882 5881 5879 5878 5877 5876 5875 5874 5872 5871 5870 5869 5868 5866 5865 5863 5861 5860 5859 5860 5860 5861 5861 5862 5862 5863 5864 5865 5865 5866 5866 5867 5867 5868 5868 5868
5889 5888 5887 5886 5885 5884 5883 5882 5881 5880 5879 5877 5876 5875 5874 5873 5871 5870 5870 5868 5867 5866 5864 5863 5861 5861 5861 5861 5861 5861 5861 5861 5862 5862 5863 5864 5864 5865 5865 5865 5866 5866 5866
5890 5889 5888 5887 5886 5885 5884 5882 5881 5880 5879 5877 5876 5875 5874 5873 5872 5870 5869 5869 5868 5866 5865 5864 5863 5862 5861 5861 5861 5860 5860 5860 5861 5861 5862 5862 5862 5863 5863 5863 5863 5864 5864
5890 5889 5888 5887 5886 5885 5884 5883 5882 5880 5879 5878 5876 5875 5874 5873 5872 5870 5869 5869 5867 5866 5865 5864 5863 5863 5862 5861 5861 5860 5860 5860 5860 5860 5860 5861 5861 5861 5861 5861 5861 5861 5861
5890 5889 5888 5887 5886 5885 5884 5883 5882 5880 5879 5878 5876 5875 5874 5873 5871 5870 5869 5868 5867 5866 5865 5864 5863 5862 5862 5861 5861 5860 5860 5859 5859 5859 5859 5859 5859 5859 5859 5859 5859 5859 5859
5889 5888 5888 5887 5885 5884 5883 5882 5881 5880 5879 5877 5876 5874 5873 5872 5871 5870 5869 5867 5867 5865 5864 5863 5862 5862 5861 5860 5859 5859 5859 5858 5858 5858 5858 5858 5857 5858 5857 5857 5857 5857 5857
5888 5888 5887 5886 5885 5883 5882 5881 5880 5879 5878 5876 5875 5874 5872 5871 5870 5869 5868 5866 5865 5864 5863 5862 5861 5860 5859 5859 5858 5857 5857 5857 5856 5857 5856 5856 5856 5855 5855 5855 5855 5854 5854
5888 5887 5886 5885 5884 5883 5881 5880 5879 5878 5876 5875 5873 5872 5871 5869 5868 5867 5866 5865 5863 5862 5861 5860 5859 5858 5857 5856 5856 5855 5855 5855 5854 5854 5854 5854 5853 5853 5853 5853 5852 5852 5851
Wind_Speed
6 4 1 1 2 2 3 3 3 4 4 5 5 5 4 4 4 6 5 5 5 5 4 4 3 4 4 5 5 5 5 5 5 4 4 2 3 4 4 4 3 4 3
7 4 1 2 2 1 2 2 3 3 3 4 4 4 4 4 4 5 5 5 5 5 5 4 4 4 4 4 4 5 5 5 4 4 3 3 3 3 4 5 4 3 3
7 5 3 2 2 1 1 2 3 3 3 3 4 4 4 4 4 4 5 5 5 5 5 5 4 5 4 4 4 4 4 5 4 4 3 3 3 4 4 5 4 4 4
7 5 4 4 3 2 1 1 1 2 2 3 3 4 4 4 3 4 5 5 4 5 5 5 5 4 4 4 4 4 5 5 5 4 4 4 4 4 4 4 4 4 4
8 6 5 4 3 3 2 1 1 2 2 2 2 3 4 4 4 4 5 5 5 5 5 5 5 5 4 4 4 5 6 5 5 5 4 4 4 5 4 4 4 4 5
7 6 5 4 3 3 2 2 2 2 2 1 2 3 4 4 4 5 5 5 6 6 5 5 5 5 5 5 5 6 6 6 6 6 6 5 5 5 4 4 4 4 5
7 7 6 6 4 4 3 2 1 1 1 1 1 2 4 4 4 5 5 5 5 5 6 6 6 5 5 5 6 6 6 6 6 7 7 6 6 5 4 4 5 5 5
8 7 7 7 6 6 6 4 1 2 2 1 1 1 2 2 3 4 4 5 5 5 5 5 5 6 5 5 6 6 7 7 7 7 8 6 6 6 6 5 5 6 6
8 7 8 7 7 6 6 5 4 4 3 2 1 0 1 2 3 3 3 3 3 4 4 4 5 5 5 5 5 6 6 7 7 7 6 5 5 6 6 6 6 6 6
8 7 8 8 8 7 6 6 5 4 3 2 1 1 0 2 3 3 3 3 3 4 4 4 4 5 5 6 6 7 7 7 7 7 5 5 5 5 6 6 6 6 6
8 8 8 9 8 8 7 6 5 5 3 3 2 2 2 2 1 1 2 3 3 3 4 4 4 5 6 6 7 7 7 6 7 6 4 4 4 5 6 6 7 6 6
9 8 8 8 8 8 8 7 6 4 3 3 2 2 3 2 1 1 1 1 2 3 3 3 4 6 6 7 6 6 6 6 6 5 4 4 5 6 6 6 6 7 6
10 9 8 8 7 7 8 7 6 5 4 3 2 2 3 2 2 2 1 1 2 2 2 2 4 4 5 6 6 6 6 6 6 5 5 5 5 6 7 7 7 7 7
9 9 9 8 7 7 7 8 7 6 6 5 4 3 3 3 3 3 2 1 2 2 3 2 2 2 4 5 6 6 6 6 6 6 6 6 7 7 7 7 7 7 7
9 9 8 9 8 7 6 6 6 7 7 6 6 5 5 5 5 5 4 4 3 4 4 3 4 3 3 4 4 4 5 5 5 6 6 6 6 6 6 6 6 7 6
9 9 8 8 7 7 6 6 6 7 7 7 7 7 6 5 6 6 5 5 5 5 4 3 3 2 3 2 3 3 4 5 4 6 6 6 6 6 6 6 6 5 6
9 9 9 8 7 6 7 7 6 6 6 7 8 7 7 6 6 6 6 6 5 5 5 4 2 2 2 2 3 4 5 4 4 6 6 6 6 6 6 6 6 6 6
9 9 9 8 8 6 6 7 6 6 7 7 8 7 6 6 6 7 7 6 6 6 5 4 2 2 2 3 4 4 4 4 4 4 5 6 6 6 6 6 6 6 7
9 8 8 8 8 8 7 7 7 8 8 8 8 8 7 6 6 7 7 7 7 7 6 4 2 2 3 4 5 5 4 4 4 4 5 5 5 6 7 6 6 6 8
9 8 8 8 8 8 8 7 8 8 8 8 9 9 8 6 7 7 7 8 8 8 7 4 3 3 4 4 5 5 4 3 4 5 4 5 5 6 7 6 7 7 8
9 9 8 8 8 8 8 8 8 8 9 9 8 9 9 7 7 7 7 8 8 8 7 6 6 5 5 4 5 5 5 5 5 5 5 5 6 7 7 7 8 8 9
9 9 9 9 9 9 9 9 9 9 9 9 9 9 9 8 7 7 8 9 8 8 7 7 7 6 6 6 7 6 5 5 5 5 5 6 7 7 8 8 9 9 9
9 9 9 9 9 9 9 9 10 10 10 9 9 10 9 8 8 8 9 9 9 8 8 7 7 7 7 7 7 7 6 6 6 6 6 7 7 8 8 9 9 9 9
8 9 9 10 10 10 10 10 10 10 10 10 10 10 9 8 9 10 10 10 10 9 9 9 9 9 9 8 8 7 7 7 7 7 7 7 8 8 9 9 9 10 11
10 10 10 10 11 11 11 11 11 11 11 11 11 11 11 10 10 10 11 11 11 11 11 11 10 10 10 10 9 9 8 8 8 8 9 8 8 9 9 10 10 11 12
10 11 11 11 12 12 12 12 12 12 12 12 13 13 13 12 12 12 12 12 12 13 12 12 12 12 12 12 11 11 10 10 9 10 11 11 10 11 12 12 12 12 13
Wind_Direction
353 341 328 221 215 228 215 205 206 207 208 211 212 216 223 225 217 218 215 213 205 197 201 194 189 186 187 188 187 194 196 198 206 211 212 228 234 230 238 252 264 262 262
7 11 45 158 176 187 184 195 206 209 213 218 214 216 220 224 218 212 211 209 202 200 203 203 200 201 203 197 198 202 204 206 212 212 223 245 238 229 237 251 269 258 256
17 33 65 99 126 141 161 182 198 210 217 224 217 212 213 210 207 205 205 207 201 202 203 202 207 209 206 208 209 206 204 207 214 216 233 241 240 236 233 250 256 251 257
24 36 58 68 73 66 65 185 209 209 210 220 222 218 215 208 212 215 217 215 211 207 205 212 215 209 211 216 222 217 211 214 214 216 227 231 234 229 230 243 251 252 252
29 36 36 44 56 41 17 311 257 240 218 214 214 218 217 216 221 224 222 220 216 212 215 222 220 214 222 229 225 221 221 223 225 229 233 228 229 227 236 236 244 251 250
32 37 35 30 27 18 351 308 282 231 207 203 195 206 210 213 222 222 218 221 221 218 221 225 225 216 220 226 225 226 231 231 233 235 237 237 236 235 237 239 244 255 254
30 32 28 20 13 12 3 341 244 214 182 168 187 216 214 211 222 220 223 223 219 220 225 230 230 228 226 229 234 232 232 235 239 240 240 241 240 237 237 248 251 252 257
32 34 27 26 37 37 32 39 67 130 130 137 177 189 190 215 219 229 233 230 224 222 235 241 236 238 233 237 239 238 236 235 237 245 243 244 242 243 239 248 257 260 256
32 31 36 40 44 45 49 60 77 105 114 119 101 113 182 219 223 234 239 220 218 225 234 250 243 244 245 249 243 240 237 237 240 243 243 245 245 240 233 241 253 261 262
32 35 36 43 49 51 54 68 76 94 102 92 63 80 84 258 245 230 235 220 229 234 240 251 243 247 244 248 245 244 242 240 247 247 245 245 237 230 235 249 255 259 264
32 32 36 44 43 43 51 62 64 71 75 70 57 49 15 341 276 260 242 235 242 241 246 247 234 239 240 237 235 235 236 239 245 248 250 239 234 236 246 253 257 259 260
37 39 38 42 42 42 49 57 57 51 49 57 56 52 37 30 32 343 271 233 269 259 250 242 237 238 240 236 231 229 231 235 239 242 242 242 244 245 248 258 260 258 257
37 42 40 45 43 41 46 51 47 43 48 59 59 40 32 29 38 14 34 272 291 280 264 261 239 242 242 236 235 233 237 237 231 232 244 254 256 254 256 259 262 265 258
30 33 37 36 37 37 40 39 40 48 50 51 38 10 6 3 12 2 357 327 305 303 299 293 271 251 249 244 239 232 236 237 235 239 254 258 259 259 259 259 258 263 261
25 28 34 34 31 31 30 31 37 37 36 33 23 11 4 3 5 360 359 2 347 341 336 302 290 259 248 240 230 231 239 244 247 248 255 263 262 265 262 261 260 262 265
24 21 20 27 28 27 25 24 28 25 26 25 20 15 8 3 3 3 2 356 356 355 350 327 296 246 249 259 256 251 253 250 253 250 259 265 264 267 267 267 265 264 266
23 19 14 13 23 36 37 29 22 14 15 14 14 11 9 6 5 2 359 353 0 357 347 344 317 265 254 269 272 265 262 260 263 259 266 269 268 268 267 264 260 263 270
15 14 16 14 18 24 23 19 16 11 9 5 5 3 2 1 360 356 353 348 356 9 2 350 313 265 248 267 283 275 265 270 266 260 268 270 271 270 270 264 267 272 277
3 7 9 7 9 9 6 5 4 3 2 1 358 359 357 355 351 353 355 358 359 358 358 358 351 303 269 270 278 280 283 285 269 267 262 262 258 259 262 263 267 273 278
353 356 358 357 357 358 359 359 360 357 358 356 353 353 352 347 347 351 353 357 358 360 356 347 333 311 308 301 298 294 299 290 268 268 263 262 257 259 264 267 270 274 278
348 349 350 349 350 350 351 352 353 353 353 352 352 351 347 342 344 347 350 349 349 350 355 358 351 335 329 325 320 314 309 296 276 266 266 265 264 267 269 267 271 276 280
342 343 344 344 343 342 345 347 346 346 347 350 351 349 349 347 342 340 341 340 338 340 341 344 342 339 334 329 327 325 315 300 285 281 274 269 272 278 276 272 275 279 280
339 338 335 337 337 336 338 341 340 341 341 340 339 341 342 340 338 330 332 334 336 338 340 336 331 330 325 323 322 318 311 310 300 293 294 284 281 282 282 283 283 286 283
331 331 332 330 330 332 333 332 331 332 333 332 329 330 333 334 335 331 331 330 327 325 325 320 319 320 322 321 318 309 305 306 302 296 293 293 288 286 285 284 287 288 288
332 329 329 328 327 327 327 327 327 326 325 326 325 323 323 321 323 324 326 327 324 320 318 315 311 311 313 314 315 311 307 301 296 295 295 295 292 289 289 290 290 291 291
329 324 327 327 328 325 323 323 323 322 320 318 318 318 317 316 315 317 318 318 317 316 313 312 308 305 304 305 306 304 300 296 291 290 290 290 289 287 288 290 293 291 292